Location: Unspecified
(0.0000°N, 0.0000°E)
Time: 08:41:28
(UTC+00:00)

Transit 2A Rocket - All Passes

Search period start: 01 October 2016 00:00
Search period end: 11 October 2016 00:00
Orbit: 586 x 918 km, 66.7° (Epoch: 30 September)

Date Brightness Start Highest point End Pass type
(mag) Time Alt. Az. Time Alt. Az. Time Alt. Az.
01 Oct - 10:21:20 10° S 10:26:26 33° ESE 10:31:47 10° NE daylight
01 Oct - 12:04:38 10° WSW 12:08:53 21° WNW 12:13:15 10° NNW daylight
01 Oct - 22:52:42 10° NNW 22:57:16 82° ENE 23:01:35 10° SSE night (unlit)
02 Oct - 09:40:38 10° SSE 09:44:12 17° ESE 09:47:52 10° ENE daylight
02 Oct - 11:21:08 10° SW 11:26:32 40° WNW 11:32:10 10° N daylight
02 Oct - 22:10:52 10° N 22:15:00 33° ENE 22:18:54 10° SE night (unlit)
03 Oct - 10:38:27 10° SSW 10:44:14 79° WNW 10:50:19 10° NNE daylight
03 Oct - 21:30:08 10° NE 21:32:39 15° ENE 21:35:06 10° ESE night (unlit)
03 Oct - 23:11:29 10° WNW 23:14:57 22° WSW 23:18:19 10° SSW night (unlit)
04 Oct - 09:56:21 10° S 10:01:58 53° ESE 10:07:51 10° NNE daylight
04 Oct - 11:42:02 10° W 11:44:29 13° WNW 11:46:59 10° NW daylight
04 Oct - 22:28:20 10° NNW 22:32:44 53° WSW 22:36:56 10° S night (unlit)
05 Oct - 09:14:55 10° SSE 09:19:43 27° ESE 09:24:42 10° NE daylight
05 Oct - 10:57:22 10° WSW 11:02:07 26° WNW 11:07:02 10° NNW daylight
05 Oct - 21:46:00 10° N 21:50:30 61° ENE 21:54:45 10° SSE night (unlit)
06 Oct - 08:34:47 10° SE 08:37:28 13° ESE 08:40:11 10° E daylight
06 Oct - 10:14:10 10° SW 10:19:47 50° WNW 10:25:39 10° N daylight
06 Oct - 21:04:26 10° NNE 21:08:12 25° ENE 21:11:47 10° SE night (unlit)
06 Oct - 22:48:36 10° W 22:50:25 12° WSW 22:52:12 10° SW night (unlit)
07 Oct - 09:31:40 10° SSW 09:37:30 84° ESE 09:43:36 10° NNE daylight
07 Oct - 20:24:39 10° NE 20:25:50 11° ENE 20:27:01 10° E night (unlit)
07 Oct - 22:04:19 10° NW 22:08:11 29° WSW 22:11:54 10° S night (unlit)
08 Oct - 08:49:46 10° S 08:55:14 43° ESE 09:00:57 10° NE daylight
08 Oct - 10:34:12 10° WSW 10:37:43 16° WNW 10:41:18 10° NNW daylight
08 Oct - 21:21:29 10° NNW 21:25:58 71° WSW 21:30:13 10° SSE night (unlit)
09 Oct - 08:08:37 10° SSE 08:12:59 22° ESE 08:17:30 10° ENE daylight
09 Oct - 09:50:13 10° SW 09:55:22 32° WNW 10:00:41 10° N daylight
09 Oct - 20:39:23 10° N 20:43:42 45° ENE 20:47:49 10° SE night (unlit)
10 Oct - 07:29:59 10° ESE 07:30:43 10° ESE 07:31:27 10° ESE daylight
10 Oct - 09:07:16 10° SSW 09:13:02 62° WNW 09:19:04 10° N daylight
10 Oct - 19:58:09 10° NNE 20:01:23 19° ENE 20:04:31 10° ESE night (unlit)
10 Oct - 21:40:54 10° WNW 21:43:38 16° WSW 21:46:19 10° SSW night (unlit)
